Satellite-Ground Cal/Val Region Overpasses Predictions

Prediction of Satellite NPP Overpassing Cal/Val Region: PacNW

Region Location: (Latitude: 10.00, Longitude: 139.50) to (Latitude: 22.70, Longitude: 165.60).

Table of predicted overpasses for the next 14.0 days since TLE Epoch: 3/5/2015
Interval Starting Time Starting Location Ending Time Ending Location
1 03/06/2015 02:32:42 ( 10.01, 163.07) 03/06/2015 02:36:18 ( 22.69, 160.06)
2 03/06/2015 15:04:35 ( 22.68, 160.27) 03/06/2015 15:08:10 ( 10.06, 157.28)
3 03/07/2015 02:16:22 ( 19.54, 165.59) 03/07/2015 02:17:15 ( 22.65, 164.83)
4 03/07/2015 03:55:10 ( 10.03, 142.44) 03/07/2015 03:58:41 ( 22.42, 139.51)
5 03/07/2015 14:45:33 ( 22.66, 165.03) 03/07/2015 14:49:08 ( 10.04, 162.03)
6 03/07/2015 16:27:03 ( 22.65, 139.65) 03/07/2015 16:27:13 ( 22.07, 139.50)
7 03/08/2015 03:36:07 ( 10.05, 147.20) 03/08/2015 03:39:42 ( 22.68, 144.20)
8 03/08/2015 16:07:59 ( 22.69, 144.42) 03/08/2015 16:11:35 ( 10.01, 141.41)
9 03/09/2015 03:17:04 ( 10.01, 151.96) 03/09/2015 03:20:40 ( 22.70, 148.96)
10 03/09/2015 15:48:57 ( 22.68, 149.17) 03/09/2015 15:52:32 ( 10.05, 146.18)
11 03/10/2015 02:58:02 ( 10.03, 156.72) 03/10/2015 03:01:37 ( 22.66, 153.72)
12 03/10/2015 15:29:54 ( 22.66, 153.92) 03/10/2015 15:33:29 ( 10.04, 150.93)
13 03/11/2015 02:38:59 ( 10.05, 161.47) 03/11/2015 02:42:34 ( 22.68, 158.47)
14 03/11/2015 15:10:51 ( 22.69, 158.69) 03/11/2015 15:14:27 ( 10.02, 155.68)
15 03/12/2015 02:20:44 ( 12.84, 165.59) 03/12/2015 02:23:32 ( 22.70, 163.23)
16 03/12/2015 04:01:26 ( 10.02, 140.86) 03/12/2015 04:03:05 ( 15.84, 139.51)
17 03/12/2015 14:51:48 ( 22.67, 163.44) 03/12/2015 14:55:23 ( 10.05, 160.45)
18 03/13/2015 03:42:23 ( 10.05, 145.61) 03/13/2015 03:45:58 ( 22.67, 142.62)
19 03/13/2015 14:35:52 ( 11.74, 165.59) 03/13/2015 14:36:21 ( 10.03, 165.20)
20 03/13/2015 16:14:16 ( 22.64, 142.82) 03/13/2015 16:17:51 ( 10.02, 139.82)
21 03/14/2015 03:23:20 ( 10.01, 150.38) 03/14/2015 03:26:56 ( 22.70, 147.37)
22 03/14/2015 15:55:12 ( 22.68, 147.58) 03/14/2015 15:58:47 ( 10.06, 144.59)
23 03/15/2015 03:04:17 ( 10.03, 155.13) 03/15/2015 03:07:52 ( 22.66, 152.13)
24 03/15/2015 15:36:10 ( 22.66, 152.34) 03/15/2015 15:39:45 ( 10.04, 149.34)
25 03/16/2015 02:45:14 ( 10.00, 159.89) 03/16/2015 02:48:50 ( 22.69, 156.89)
26 03/16/2015 15:17:06 ( 22.69, 157.10) 03/16/2015 15:20:42 ( 10.01, 154.09)
27 03/17/2015 02:26:11 ( 10.03, 164.64) 03/17/2015 02:29:46 ( 22.65, 161.65)
28 03/17/2015 14:58:04 ( 22.66, 161.85) 03/17/2015 15:01:39 ( 10.05, 158.86)
29 03/18/2015 03:48:38 ( 10.00, 144.03) 03/18/2015 03:52:14 ( 22.69, 141.03)
30 03/18/2015 14:40:12 ( 18.53, 165.60) 03/18/2015 14:42:37 ( 10.02, 163.61)
31 03/18/2015 16:20:31 ( 22.69, 141.24) 03/18/2015 16:22:33 ( 15.53, 139.51)
32 03/19/2015 03:29:35 ( 10.03, 148.78) 03/19/2015 03:33:10 ( 22.66, 145.79)


NCC Satellite Cal/Val Overpasses Prediction Service
